| time (UTC) | temp F | wind direction | speed MPH | gust MPH | rain 1hr in | rain 24hr in | rain mn in | humidity % | barometer mb |
| 20260902184823 | 80 | 0.0 | 0.0 | 0.00 | 0.00 | 0.00 | 55 | 996.5 | |
| 20260902182824 | 81 | 0.0 | 0.0 | 0.00 | 0.00 | 0.00 | 58 | 996.6 | |
| 20260902180824 | 81 | 0.0 | 0.0 | 0.00 | 0.00 | 0.00 | 55 | 996.5 | |
| 20260902174823 | 79 | 0.0 | 0.0 | 0.00 | 0.00 | 0.00 | 44 | 996.6 | |
| 20260902172824 | 83 | 0.0 | 0.0 | 0.00 | 0.00 | 0.00 | 53 | 997.0 | |
| 20260902170823 | 83 | 0.0 | 0.0 | 0.00 | 0.00 | 0.00 | 54 | 997.0 | |
| 20260902164824 | 84 | 0.0 | 0.0 | 0.00 | 0.00 | 0.00 | 59 | 996.7 | |
| 20260902162823 | 83 | 0.0 | 0.0 | 0.00 | 0.00 | 0.00 | 59 | 996.7 | |
| 20260902160824 | 83 | 0.0 | 0.0 | 0.00 | 0.00 | 0.00 | 59 | 996.9 | |
| 20260902154824 | 84 | 0.0 | 0.0 | 0.00 | 0.00 | 0.00 | 59 | 996.8 | |
| 20260902152823 | 83 | 0.0 | 0.0 | 0.00 | 0.00 | 0.00 | 58 | 996.8 | |
| 20260902150824 | 83 | 0.0 | 0.0 | 0.00 | 0.00 | 0.00 | 56 | 996.9 | |
| 20260902144823 | 82 | 0.0 | 0.0 | 0.00 | 0.00 | 0.00 | 55 | 996.9 | |
| 20260902142824 | 83 | 0.0 | 0.0 | 0.00 | 0.00 | 0.00 | 50 | 997.2 | |
| 20260902140823 | 81 | 0.0 | 0.0 | 0.00 | 0.00 | 0.00 | 54 | 997.2 | |
| 20260902134824 | 81 | 0.0 | 0.0 | 0.00 | 0.00 | 0.00 | 55 | 997.1 | |
| 20260902132824 | 83 | 0.0 | 0.0 | 0.00 | 0.00 | 0.00 | 52 | 996.9 | |
| 20260902130823 | 82 | 0.0 | 0.0 | 0.00 | 0.00 | 0.00 | 54 | 997.2 | |
| 20260902124824 | 82 | 0.0 | 0.0 | 0.00 | 0.00 | 0.00 | 56 | 997.1 | |
| 20260902122823 | 81 | 0.0 | 0.0 | 0.00 | 0.00 | 0.00 | 54 | 996.7 | |
| 20260902120824 | 79 | 0.0 | 0.0 | 0.00 | 0.00 | 0.00 | 50 | 996.5 | |
| 20260902114823 | 81 | 0.0 | 0.0 | 0.00 | 0.00 | 0.00 | 50 | 996.3 | |
| 20260902112824 | 81 | 0.0 | 0.0 | 0.00 | 0.00 | 0.00 | 53 | 996.1 | |
| 20260902110823 | 82 | 0.0 | 0.0 | 0.00 | 0.00 | 0.00 | 56 | 995.7 | |
| 20260902104824 | 83 | 0.0 | 0.0 | 0.00 | 0.00 | 0.00 | 52 | 995.5 | |
| 20260902102824 | 83 | 0.0 | 0.0 | 0.00 | 0.00 | 0.00 | 52 | 995.8 | |
| 20260902100823 | 84 | 0.0 | 0.0 | 0.00 | 0.00 | 0.00 | 58 | 995.8 | |
| 20260902094824 | 84 | 0.0 | 0.0 | 0.00 | 0.00 | 0.00 | 59 | 995.6 | |
| 20260902092823 | 84 | 0.0 | 0.0 | 0.00 | 0.00 | 0.00 | 59 | 995.4 | |
| 20260902090824 | 84 | 0.0 | 0.0 | 0.00 | 0.00 | 0.00 | 59 | 995.5 | |
| 20260902084824 | 84 | 0.0 | 0.0 | 0.00 | 0.00 | 0.00 | 56 | 995.9 | |
| 20260902082823 | 83 | 0.0 | 0.0 | 0.00 | 0.00 | 0.00 | 56 | 995.9 | |
| 20260902080824 | 84 | 0.0 | 0.0 | 0.00 | 0.00 | 0.00 | 57 | 995.6 | |
| 20260902074823 | 83 | 0.0 | 0.0 | 0.00 | 0.00 | 0.00 | 55 | 995.6 | |
| 20260902072824 | 83 | 0.0 | 0.0 | 0.00 | 0.00 | 0.00 | 53 | 995.8 | |
| 20260902070824 | 83 | 0.0 | 0.0 | 0.00 | 0.00 | 0.00 | 53 | 995.9 | |
| 20260902064823 | 83 | 0.0 | 0.0 | 0.00 | 0.00 | 0.00 | 52 | 996.2 | |
| 20260902062824 | 83 | 0.0 | 0.0 | 0.00 | 0.00 | 0.00 | 53 | 996.4 | |
| 20260902060823 | 84 | 0.0 | 0.0 | 0.00 | 0.00 | 0.00 | 57 | 996.4 | |
| 20260902054824 | 84 | 0.0 | 0.0 | 0.00 | 0.00 | 0.00 | 59 | 996.7 | |
| 20260902052824 | 84 | 0.0 | 0.0 | 0.00 | 0.00 | 0.00 | 59 | 997.2 | |
| 20260902050824 | 84 | 0.0 | 0.0 | 0.00 | 0.00 | 0.00 | 59 | 997.4 | |
| 20260902044824 | 84 | 0.0 | 0.0 | 0.00 | 0.00 | 0.00 | 58 | 997.5 | |
| 20260902042824 | 83 | 0.0 | 0.0 | 0.00 | 0.00 | 0.00 | 59 | 997.9 | |
| 20260902040823 | 83 | 0.0 | 0.0 | 0.00 | 0.00 | 0.00 | 60 | 998.3 | |
| 20260902034824 | 83 | 0.0 | 0.0 | 0.00 | 0.00 | 0.00 | 62 | 998.5 | |
| 20260902032824 | 82 | 0.0 | 0.0 | 0.00 | 0.00 | 0.00 | 64 | 998.6 | |
| 20260902030823 | 79 | 0.0 | 0.0 | 0.00 | 0.00 | 0.00 | 46 | 998.5 | |
| 20260902024824 | 80 | 0.0 | 0.0 | 0.00 | 0.00 | 0.00 | 45 | 998.8 | |
| 20260902022823 | 79 | 0.0 | 0.0 | 0.00 | 0.00 | 0.00 | 46 | 999.0 | |
| 20260902020824 | 82 | 0.0 | 0.0 | 0.00 | 0.00 | 0.00 | 44 | 999.1 | |
| 20260902014824 | 80 | 0.0 | 0.0 | 0.00 | 0.00 | 0.00 | 46 | 999.3 | |
| 20260902012823 | 81 | 0.0 | 0.0 | 0.00 | 0.00 | 0.00 | 45 | 999.4 | |
| 20260902010824 | 80 | 0.0 | 0.0 | 0.00 | 0.00 | 0.00 | 46 | 999.8 | |
| 20260902004823 | 81 | 0.0 | 0.0 | 0.00 | 0.00 | 0.00 | 47 | 999.8 | |
| 20260902002824 | 82 | 0.0 | 0.0 | 0.00 | 0.00 | 0.00 | 46 | 1000.1 | |
| 20260902000824 | 82 | 0.0 | 0.0 | 0.00 | 0.00 | 0.00 | 46 | 1000.2 | |
| 20260901234823 | 82 | 0.0 | 0.0 | 0.00 | 0.00 | 0.00 | 47 | 1000.3 | |
| 20260901232824 | 82 | 0.0 | 0.0 | 0.00 | 0.00 | 0.00 | 48 | 1000.2 | |
| 20260901230823 | 82 | 0.0 | 0.0 | 0.00 | 0.00 | 0.00 | 49 | 1000.0 | |
| 20260901224824 | 81 | 0.0 | 0.0 | 0.00 | 0.00 | 0.00 | 50 | 1000.1 | |
| 20260901222824 | 81 | 0.0 | 0.0 | 0.00 | 0.00 | 0.00 | 50 | 1000.0 | |
| 20260901220824 | 82 | 0.0 | 0.0 | 0.00 | 0.00 | 0.00 | 49 | 1000.0 | |
| 20260901214824 | 82 | 0.0 | 0.0 | 0.00 | 0.00 | 0.00 | 50 | 999.8 | |
| 20260901212823 | 83 | 0.0 | 0.0 | 0.00 | 0.00 | 0.00 | 51 | 999.8 | |
| 20260901210824 | 83 | 0.0 | 0.0 | 0.00 | 0.00 | 0.00 | 53 | 999.7 | |
| 20260901204824 | 83 | 0.0 | 0.0 | 0.00 | 0.00 | 0.00 | 56 | 999.4 | |
| 20260901202824 | 83 | 0.0 | 0.0 | 0.00 | 0.00 | 0.00 | 57 | 999.4 | |
| 20260901200824 | 83 | 0.0 | 0.0 | 0.00 | 0.00 | 0.00 | 59 | 999.3 | |
| 20260901194823 | 82 | 0.0 | 0.0 | 0.00 | 0.00 | 0.00 | 52 | 999.2 | |
| 20260901192824 | 80 | 0.0 | 0.0 | 0.00 | 0.00 | 0.00 | 47 | 999.6 | |
| 20260901190824 | 82 | 0.0 | 0.0 | 0.00 | 0.00 | 0.00 | 46 | 999.5 |